Regional Weather Roundup
Issued by NWS

Home | Current Version | Previous Version | Graphics & Text | Print | Product List | Glossary On
Versions: 1 2 3 4 5 6 7 8 9 10 11 12 13 14 15 16 17 18 19 20 21 22 23 24 25 26 27 28 29 30 31 32 33 34 35 36 37 38 39 40 41 42 43 44 45 46 47 48 49 50
000
ASUS43 KMKX 220511
RWRWI

WISCONSIN REGIONAL WEATHER ROUNDUP
NATIONAL WEATHER SERVICE MILWAUKEE/SULLIVAN WI
1100 PM CST TUE FEB 21 2017

NOTE: "FAIR" INDICATES FEW OR NO CLOUDS BELOW 12,000 FEET WITH NO
SIGNIFICANT WEATHER AND/OR OBSTRUCTIONS TO VISIBILITY.

WIZ001-002-006>008-014>016-023>028-220600-
NORTHWEST WISCONSIN

CITY           SKY/WX    TMP DP  RH WIND       PRES   REMARKS
SUPERIOR ARPT  CLOUDY    33  32  97 S6        29.69S WCI  27
ASHLAND        CLOUDY    44  36  73 W3        29.68R
HAYWARD        MOCLDY    50  41  71 SW6       29.68S
SIREN          PTCLDY    45  40  82 W3        29.69S
CUMBERLAND     PTCLDY    43  39  87 S5        29.68F
RICE LAKE      PTCLDY    44  38  81 CALM      29.71S
CHETEK         PTCLDY    46  40  79 S3        29.70F
LADYSMITH      CLOUDY    46  36  69 S5        29.72F
EAU CLAIRE     CLEAR     46  38  73 S7        29.70F
MENOMONIE      CLEAR     48  40  73 S6        29.71S
NEW RICHMOND   CLEAR     44  42  93 SW5       29.69F
OSCEOLA        NOT AVBL
$$

WIZ003>005-009-010-017-018-220600-
NORTH CENTRAL WISCONSIN

CITY           SKY/WX    TMP DP  RH WIND       PRES   REMARKS
MANITOWISH WTR PTCLDY    44  34  67 S6        29.69F
ARBOR VITAE    MOCLDY    45  34  66 S5          N/A
WOODRUFF       MOCLDY    45  34  66 S5          N/A
RHINELANDER    CLOUDY    49  33  54 SW9       29.71F
EAGLE RIVER    MOCLDY    48  31  50 SW6       29.70F
LAND O LAKES   CLOUDY    46  32  58 S3        29.71F
PHILLIPS       PTCLDY    45  34  64 SW3       29.69F
TOMAHAWK       CLOUDY    46  33  60 S3        29.72F
MEDFORD        PTCLDY    45  34  66 S7        29.72F
MERRILL        NOT AVBL
$$

WIZ029-030-035-036-043>047-220600-
CENTRAL WISCONSIN

CITY           SKY/WX    TMP DP  RH WIND       PRES   REMARKS
WAUSAU         CLOUDY    47  32  56 SW9       29.73F
MOSINEE        MOCLDY    43  34  70 S8        29.76F
MARSHFIELD     CLEAR     47  33  58 S9        29.73F
STEVENS POINT  CLOUDY    46  33  61 S6        29.76F
WAUPACA        CLOUDY    48  36  63 CALM      29.78S
WAUTOMA        CLOUDY    48  37  65 S5        29.80R
WISC RAPIDS    CLOUDY    47  35  63 SW7       29.77F
CAMP DOUGLAS   CLOUDY    52  38  58 S12       29.76F
$$

WIZ011>013-019>022-031-037>040-048>050-220600-
NORTHEAST WISCONSIN

CITY           SKY/WX    TMP DP  RH WIND       PRES   REMARKS
ANTIGO         CLOUDY    44  33  65 SW9       29.74F
SHAWANO        CLOUDY    50  38  63 CALM      29.77F
OCONTO         PTCLDY    42  36  80 S3        29.76F
STURGEON BAY   CLOUDY    47  41  80 SW10      29.80R
GREEN BAY      CLOUDY    48  39  71 SW5       29.79R
MANITOWOC      CLOUDY    46  42  86 SW5       29.81F
APPLETON       MOCLDY    46  36  66 SW7       29.77
CLINTONVILLE   MOCLDY    46  36  66 S7        29.77F
OSHKOSH        CLOUDY    51  37  58 S14       29.78F
$$

WIZ032>034-041-042-053>061-220600-
SOUTHWEST WISCONSIN

CITY           SKY/WX    TMP DP  RH WIND       PRES   REMARKS
LA CROSSE      PTCLDY    50  41  71 S12       29.75F
SPARTA         PTCLDY    38  34  87 CALM      29.78F
VIROQUA        PTCLDY    46  38  76 S6        29.79S
BOSCOBEL       CLEAR     45  38  76 SW6       29.81F
PRAIRIE DU CHI CLEAR     41  36  80 CALM      29.81S
PLATTEVILLE    CLEAR     46  40  79 SE8       29.82F
$$

WIZ056-057-062-063-064-067-068-220600-
SOUTH CENTRAL WISCONSIN

CITY           SKY/WX    TMP DP  RH WIND       PRES   REMARKS
REEDSBURG      CLEAR     49  37  61 S3        29.80S
BARABOO/DELLS  PTCLDY    52  37  56 SW13      29.80R
LONE ROCK      CLEAR     42  35  76 CALM      29.82S
MINERAL POINT  CLEAR     46  39  76 S7        29.82F
MADISON        PTCLDY    51  39  63 S9        29.82F
MIDDLETON      PTCLDY    52  40  62 S12       29.82F
WATERTOWN      CLOUDY    47  38  73 CALM      29.83S
MONROE         CLEAR     45  37  76 S9        29.83S
JANESVILLE     CLEAR     46  37  71 CALM      29.83F
$$

WIZ051-052-058>065-066-070>072-220600-
SOUTHEAST WISCONSIN

CITY           SKY/WX    TMP DP  RH WIND       PRES   REMARKS
MILWAUKEE      PTCLDY    45  41  86 S3        29.84F FOG
WAUKESHA       PTCLDY    46  37  71 S3        29.84S
MILWAUKEE/TIMM CLEAR     46  41  81 S3        29.84F
RACINE         CLEAR     39  38  96 S5        29.86F FOG
KENOSHA        FOG       45  45 100 CALM      29.84F VSB 1/4
FOND DU LAC    CLOUDY    50  36  58 S10       29.80F
SHEBOYGAN      MOCLDY    41  40  96 S7        29.81F FOG
WEST BEND      CLOUDY    43  41  93 S5        29.83S
JUNEAU         CLOUDY    49  37  65 S8        29.83F
$$

LSZ147-162-220600-
LAKE SUPERIOR

STATION/POSITION TIME  TEMP    WIND        PRES    WAVE
                       AIR SEA DIR/SP/G            HT/PER
                 (UTC) (F)     (DEG/KT/KT) (MB)    (FT/S)
DEVILS ISLAND    0500   37     320/  6/  6 1005.4R
PORT WING        0440   34     270/  2/  3 1005.8R
SAXON HARBOR     0430   44     200/  1/  3 1004.4F
$$

LMZ867-665-643>646-220600-
LAKE MICHIGAN

STATION/POSITION TIME  TEMP    WIND        PRES    WAVE
                       AIR SEA DIR/SP/G            HT/PER
                 (UTC) (F)     (DEG/KT/KT) (MB)    (FT/S)
CHAMBERS ISLAND  0440   49     180/  6/ 13 1007.8S
NORTHPORT PIER   0440   45     160/  5/ 11 1008.5F
SISTER BAY       0350   48     170/ 13/ 16   N/A
ALGOMA LAKESHORE 0425          210/ 16/ 19   N/A
KEWAUNEE LAKESHO 0448   41     200/  9/ 14 1008.6F
SHEBOYGAN LAKESH 0500   39     190/ 11/ 12 1009.8F
PORT WASHINGTON  0440   39     210/  4/  6 1011.2F
MILWAUKEE LAKESH 0450   39     200/  3/  3   N/A
KENOSHA   LAKESH 0500   39      CALM  /  3 1010.8
$$

TC  - TEMPERATURE IN CELSIUS
VSB - VISIBILITY IN STATUTE MILES
WCI - WIND CHILL INDEX
HX  - HEAT INDEX




USA.gov is the U.S. government's official web portal to all federal, state and local government web resources and services.